When you browse on this site, cookies collect data to enhance your experience and personalize the content and advertising you see.
Visit our Privacy Policy to learn more. By continuing to use the site, you agree to this use of cookies and data.

Hourly Weather Tukums

Today, 8 July, Wednesday

Time Temperature Precipitation Wind Pressure Humidity
00:00 +10°C° 0 mm 3 mps 751 mmHg 91%
01:00 +9°C° 0 mm 3 mps 751 mmHg 93%
02:00 +9°C° 0 mm 3 mps 751 mmHg 95%
03:00 +9°C° 0 mm 3 mps 751 mmHg 94%
04:00 +9°C° 0 mm 3 mps 751 mmHg 94%
05:00 +10°C° 0 mm 3 mps 751 mmHg 94%
06:00 +11°C° 0 mm 3 mps 751 mmHg 87%
07:00 +13°C° 0 mm 4 mps 750 mmHg 81%
08:00 +14°C° 0 mm 4 mps 750 mmHg 74%
09:00 +14°C° 1.5 mm 4 mps 750 mmHg 80%
10:00 +13°C° 1.5 mm 4 mps 750 mmHg 86%
11:00 +13°C° 1.5 mm 4 mps 750 mmHg 91%
12:00 +13°C° 0.7 mm 4 mps 750 mmHg 89%
13:00 +13°C° 0.7 mm 4 mps 750 mmHg 86%
14:00 +14°C° 0.7 mm 4 mps 750 mmHg 83%
15:00 +14°C° 0.3 mm 4 mps 750 mmHg 76%
16:00 +15°C° 0.3 mm 4 mps 750 mmHg 69%
17:00 +17°C° 0.3 mm 4 mps 750 mmHg 61%
18:00 +15°C° 0 mm 4 mps 750 mmHg 65%
19:00 +14°C° 0 mm 3 mps 751 mmHg 69%
20:00 +13°C° 0 mm 3 mps 751 mmHg 73%
21:00 +12°C° 0 mm 3 mps 751 mmHg 79%
22:00 +11°C° 0 mm 3 mps 751 mmHg 85%
23:00 +10°C° 0 mm 4 mps 751 mmHg 91%

Tomorrow, 9 July, Thursday

Time Temperature Precipitation Wind Pressure Humidity
00:00 +8°C° 0 mm 4 mps 751 mmHg 91%
01:00 +8°C° 0 mm 4 mps 751 mmHg 91%
02:00 +8°C° 0 mm 4 mps 751 mmHg 91%
03:00 +8°C° 0 mm 4 mps 751 mmHg 91%
04:00 +10°C° 0 mm 4 mps 751 mmHg 91%
05:00 +10°C° 0 mm 4 mps 751 mmHg 91%
06:00 +12°C° 0 mm 4 mps 752 mmHg 81%
07:00 +14°C° 0 mm 4 mps 752 mmHg 72%
08:00 +17°C° 0 mm 4 mps 752 mmHg 62%
09:00 +18°C° 0.1 mm 4 mps 753 mmHg 59%
10:00 +18°C° 0.1 mm 4 mps 753 mmHg 57%
11:00 +19°C° 0.1 mm 4 mps 753 mmHg 54%
12:00 +19°C° 0.4 mm 4 mps 753 mmHg 55%
13:00 +20°C° 0.4 mm 4 mps 754 mmHg 56%
14:00 +20°C° 0.4 mm 3 mps 754 mmHg 57%
15:00 +19°C° 0.4 mm 3 mps 754 mmHg 61%
16:00 +19°C° 0.4 mm 3 mps 754 mmHg 65%
17:00 +18°C° 0.4 mm 3 mps 754 mmHg 69%
18:00 +17°C° 0.2 mm 2 mps 754 mmHg 73%
19:00 +16°C° 0.2 mm 2 mps 754 mmHg 77%
20:00 +15°C° 0.2 mm 1 mps 754 mmHg 81%
21:00 +14°C° 0.1 mm 2 mps 755 mmHg 85%
22:00 +12°C° 0.1 mm 2 mps 755 mmHg 89%
23:00 +10°C° 0.1 mm 2 mps 755 mmHg 93%

Day after tomorrow, 10 July, Friday

Time Temperature Precipitation Wind Pressure Humidity
00:00 +10°C° 0 mm 2 mps 755 mmHg 94%
01:00 +9°C° 0 mm 2 mps 755 mmHg 95%
02:00 +9°C° 0 mm 2 mps 755 mmHg 96%
03:00 +9°C° 0 mm 2 mps 755 mmHg 96%
04:00 +8°C° 0 mm 2 mps 755 mmHg 96%
05:00 +8°C° 0 mm 2 mps 755 mmHg 96%
06:00 +10°C° 0 mm 2 mps 755 mmHg 92%
07:00 +13°C° 0 mm 2 mps 754 mmHg 88%
08:00 +13°C° 0 mm 3 mps 754 mmHg 83%
09:00 +14°C° 0.1 mm 3 mps 754 mmHg 81%
10:00 +15°C° 0.1 mm 4 mps 754 mmHg 79%
11:00 +17°C° 0.1 mm 4 mps 754 mmHg 77%
12:00 +17°C° 0.2 mm 4 mps 754 mmHg 77%
13:00 +18°C° 0.2 mm 4 mps 753 mmHg 77%
14:00 +18°C° 0.2 mm 4 mps 753 mmHg 77%
15:00 +17°C° 0.1 mm 4 mps 753 mmHg 81%
16:00 +17°C° 0.1 mm 4 mps 752 mmHg 84%
17:00 +15°C° 0.1 mm 4 mps 751 mmHg 88%
18:00 +15°C° 0.2 mm 4 mps 751 mmHg 90%
19:00 +15°C° 0.2 mm 4 mps 750 mmHg 92%
20:00 +15°C° 0.2 mm 5 mps 750 mmHg 94%
21:00 +15°C° 0.5 mm 5 mps 749 mmHg 95%
22:00 +16°C° 0.5 mm 5 mps 749 mmHg 96%
23:00 +16°C° 0.5 mm 5 mps 748 mmHg 97%

11 July, Saturday

Time Temperature Precipitation Wind Pressure Humidity
00:00 +16°C° 0.2 mm 5 mps 748 mmHg 97%
01:00 +16°C° 0.2 mm 5 mps 747 mmHg 97%
02:00 +16°C° 0.2 mm 5 mps 747 mmHg 96%
03:00 +16°C° 0.1 mm 5 mps 747 mmHg 96%
04:00 +16°C° 0.1 mm 5 mps 747 mmHg 95%
05:00 +16°C° 0.1 mm 6 mps 747 mmHg 95%
06:00 +15°C° 0.1 mm 6 mps 747 mmHg 90%
07:00 +15°C° 0.1 mm 7 mps 747 mmHg 86%
08:00 +15°C° 0.1 mm 8 mps 748 mmHg 82%
09:00 +15°C° 0 mm 8 mps 748 mmHg 75%
10:00 +16°C° 0 mm 9 mps 749 mmHg 68%
11:00 +17°C° 0 mm 9 mps 749 mmHg 61%
12:00 +17°C° 0.1 mm 9 mps 750 mmHg 61%
13:00 +17°C° 0.1 mm 9 mps 751 mmHg 61%
14:00 +18°C° 0.1 mm 9 mps 751 mmHg 61%
15:00 +17°C° 0.1 mm 8 mps 752 mmHg 65%
16:00 +16°C° 0.1 mm 8 mps 753 mmHg 68%
17:00 +15°C° 0.1 mm 7 mps 754 mmHg 72%
18:00 +15°C° 0 mm 6 mps 754 mmHg 72%
19:00 +14°C° 0 mm 5 mps 755 mmHg 73%
20:00 +14°C° 0 mm 4 mps 755 mmHg 73%
21:00 +13°C° 0 mm 4 mps 755 mmHg 78%
22:00 +13°C° 0 mm 4 mps 755 mmHg 83%
23:00 +12°C° 0 mm 4 mps 756 mmHg 87%

12 July, Sunday

Time Temperature Precipitation Wind Pressure Humidity
00:00 +12°C° 0 mm 4 mps 756 mmHg 90%
01:00 +11°C° 0 mm 4 mps 756 mmHg 92%
02:00 +11°C° 0 mm 3 mps 756 mmHg 94%
03:00 +11°C° 0 mm 3 mps 756 mmHg 94%
04:00 +11°C° 0 mm 3 mps 756 mmHg 94%
05:00 +11°C° 0 mm 3 mps 756 mmHg 95%
06:00 +12°C° 0 mm 3 mps 756 mmHg 89%
07:00 +14°C° 0 mm 3 mps 756 mmHg 84%
08:00 +16°C° 0 mm 3 mps 757 mmHg 78%
09:00 +18°C° 0.1 mm 3 mps 757 mmHg 72%
10:00 +19°C° 0.1 mm 3 mps 757 mmHg 66%
11:00 +20°C° 0.1 mm 3 mps 757 mmHg 60%
12:00 +20°C° 0.4 mm 3 mps 757 mmHg 65%
13:00 +20°C° 0.4 mm 3 mps 757 mmHg 70%
14:00 +19°C° 0.4 mm 3 mps 757 mmHg 74%
15:00 +19°C° 0.6 mm 3 mps 757 mmHg 76%
16:00 +18°C° 0.6 mm 4 mps 757 mmHg 79%
17:00 +18°C° 0.6 mm 4 mps 757 mmHg 81%
18:00 +17°C° 0.4 mm 4 mps 757 mmHg 82%
19:00 +15°C° 0.4 mm 4 mps 757 mmHg 83%
20:00 +14°C° 0.4 mm 3 mps 757 mmHg 83%
21:00 +13°C° 0 mm 3 mps 758 mmHg 87%
22:00 +12°C° 0 mm 3 mps 758 mmHg 90%
23:00 +10°C° 0 mm 3 mps 758 mmHg 93%

13 July, Monday

Time Temperature Precipitation Wind Pressure Humidity
00:00 +10°C° 0 mm 3 mps 758 mmHg 94%
01:00 +10°C° 0 mm 2 mps 758 mmHg 95%
02:00 +9°C° 0 mm 2 mps 758 mmHg 95%
03:00 +9°C° 0 mm 2 mps 758 mmHg 95%
04:00 +9°C° 0 mm 2 mps 758 mmHg 95%
05:00 +9°C° 0 mm 2 mps 758 mmHg 94%
06:00 +12°C° 0 mm 2 mps 758 mmHg 88%
07:00 +14°C° 0 mm 2 mps 758 mmHg 81%
08:00 +16°C° 0 mm 2 mps 758 mmHg 74%
09:00 +18°C° 0 mm 1 mps 758 mmHg 66%
10:00 +20°C° 0 mm 1 mps 758 mmHg 58%
11:00 +22°C° 0 mm 1 mps 758 mmHg 51%
12:00 +22°C° 0 mm 1 mps 758 mmHg 49%
13:00 +23°C° 0 mm 1 mps 758 mmHg 47%
14:00 +24°C° 0 mm 1 mps 758 mmHg 46%
15:00 +23°C° 0 mm 2 mps 758 mmHg 49%
16:00 +23°C° 0 mm 2 mps 758 mmHg 53%
17:00 +23°C° 0 mm 2 mps 758 mmHg 57%
18:00 +21°C° 0 mm 2 mps 758 mmHg 63%
19:00 +19°C° 0 mm 2 mps 757 mmHg 68%
20:00 +18°C° 0 mm 2 mps 757 mmHg 74%
21:00 +17°C° 0 mm 2 mps 757 mmHg 80%
22:00 +15°C° 0 mm 2 mps 758 mmHg 85%
23:00 +14°C° 0 mm 2 mps 758 mmHg 91%
Show more